Change the Weather History Date:

Friday, February 7, 2014

  Actual Average (KJFX) Record (KJFX)
Temperature  
Mean Temperature 27 °F -  
Max Temperature 32 °F 50 °F 69 °F (2015)
Min Temperature 22 °F 30 °F 11 °F (1984)
Degree Days  
Heating Degree Days 38    
Moisture  
Dew Point 20 °F    
Average Humidity 77    
Maximum Humidity 88    
Minimum Humidity 66    
Precipitation  
Precipitation 0.00 in - - ()
Sea Level Pressure  
Sea Level Pressure 30.37 in    
Wind  
Wind Speed 4 mph (NNE)    
Max Wind Speed 8 mph    
Max Gust Speed -    
Visibility 10 miles    
Events      
Averages and records for this station are not official NWS values.
T = Trace of Precipitation, MM = Missing Value Source: NWS Daily Summary

Daily Weather History Graph

Daily Weather History Graph

Search for Another Location

Airport or City:

Trip Planner

Search our weather history database for the weather conditions in past years. The results will help you decide how hot, cold, wet, or windy it might be!

Date:

Astronomy

Feb. 07, 2014 Rise Set
Actual Time 6:43 AM CST 5:26 PM CST
Civil Twilight 6:17 AM CST 5:52 PM CST
Nautical Twilight 5:47 AM CST 6:22 PM CST
Astronomical Twilight 5:17 AM CST 6:51 PM CST
Moon 11:40 AM CST (2/7) 12:56 AM CST (2/7)
Length of Visible Light 11h 35m
Length of Day
10h 43m
First Quarter, 59% of the Moon is Illuminated
Feb 7
First Quarter
Feb 14
Full
Feb 22
Last Quarter
Mar 1
New
Mar 8
First Quarter

Hourly Weather History & Observations

Time (CST) Temp. Windchill Dew Point Humidity Pressure Visibility Wind Dir Wind Speed Gust Speed Precip Events Conditions
12:56 AM 24.1 °F 17.0 °F 19.0 °F 81% 30.38 in 10.0 mi North 5.8 mph - N/A   Overcast
1:56 AM 23.0 °F - 19.0 °F 85% 30.38 in 10.0 mi Calm Calm - N/A   Overcast
2:56 AM 23.0 °F 13.9 °F 19.0 °F 85% 30.37 in 10.0 mi NE 8.1 mph - N/A   Overcast
3:56 AM 22.1 °F 13.7 °F 19.0 °F 88% 30.37 in 10.0 mi NNE 6.9 mph - N/A   Overcast
4:56 AM 22.1 °F 17.4 °F 18.1 °F 85% 30.41 in 9.0 mi North 3.5 mph - N/A   Overcast
5:56 AM 22.1 °F 13.7 °F 18.1 °F 85% 30.41 in 9.0 mi NNE 6.9 mph - N/A   Overcast
6:56 AM 22.1 °F 14.7 °F 19.0 °F 88% 30.41 in 8.0 mi Variable 5.8 mph - N/A   Overcast
7:56 AM 23.0 °F 15.8 °F 18.1 °F 82% 30.44 in 9.0 mi Variable 5.8 mph - N/A   Overcast
8:56 AM 24.1 °F 17.0 °F 19.0 °F 81% 30.45 in 9.0 mi NNE 5.8 mph - N/A   Overcast
9:46 AM 24.8 °F 19.1 °F 19.4 °F 80% 30.43 in 10.0 mi NE 4.6 mph - N/A   Overcast
9:56 AM 25.2 °F 19.5 °F 19.0 °F 78% 30.44 in 10.0 mi NE 4.6 mph - N/A   Overcast
10:56 AM 27.1 °F 19.7 °F 19.0 °F 72% 30.43 in 10.0 mi North 6.9 mph - N/A   Overcast
11:56 AM 28.0 °F 21.7 °F 20.1 °F 72% 30.42 in 10.0 mi North 5.8 mph - N/A   Overcast
12:56 PM 30.0 °F - 20.1 °F 67% 30.38 in 10.0 mi Calm Calm - N/A   Overcast
1:56 PM 31.1 °F - 21.0 °F 66% 30.36 in 10.0 mi Calm Calm - N/A   Overcast
2:56 PM 32.0 °F - 22.1 °F 67% 30.35 in 10.0 mi Calm Calm - N/A   Overcast
3:56 PM 32.0 °F 27.5 °F 22.1 °F 67% 30.34 in 10.0 mi Variable 4.6 mph - N/A   Overcast
4:56 PM 31.1 °F 24.5 °F 23.0 °F 72% 30.33 in 10.0 mi North 6.9 mph - N/A   Overcast
5:56 PM 30.0 °F - 22.1 °F 72% 30.32 in 10.0 mi Calm Calm - N/A   Overcast
6:56 PM 29.1 °F - 21.0 °F 72% 30.31 in 10.0 mi Calm Calm - N/A   Clear
7:56 PM 29.1 °F - 22.1 °F 75% 30.32 in 10.0 mi Calm Calm - N/A   Partly Cloudy
8:56 PM 29.1 °F 25.4 °F 23.0 °F 78% 30.34 in 10.0 mi NNW 3.5 mph - N/A   Overcast
9:56 PM 29.1 °F 24.1 °F 23.0 °F 78% 30.34 in 10.0 mi North 4.6 mph - N/A   Overcast
10:56 PM 29.1 °F - 22.1 °F 75% 30.32 in 10.0 mi Calm Calm - N/A   Overcast
11:31 PM 28.4 °F - 21.2 °F 74% 30.30 in 9.0 mi Calm Calm - 0.00 in   Mostly Cloudy
11:56 PM 29.1 °F 25.4 °F 23.0 °F 78% 30.34 in 10.0 mi NNW 3.5 mph - 0.00 in   Mostly Cloudy